Location: El Manguito
(10.2358°N, 67.3634°W)
Time: 20:28:15
(UTC+00:00)

Aurora 2 Rocket - Pass Details

Date: 11 December 2024
Orbit: 386 x 1590 km, 25.0° (Epoch: 12 January)

Event Time Altitude Azimuth Distance (km) Brightness Sun altitude
Rises 23:43:50 0° 239° (WSW) 4,024 8.1 -22.4°
Reaches altitude 10° 23:46:25 10° 238° (WSW) 3,214 7.3 -23.0°
Maximum altitude 23:54:55 75° 153° (SSE) 1,514 4.3 -25.0°
Enters shadow 23:58:37 44° 79° (E) 2,026 4.6 -25.8°
